| time (UTC) | temp F | wind direction | speed MPH | gust MPH | rain 1hr in | rain 24hr in | rain mn in | humidity % | barometer mb |
| 20260901033036 | 75 | 101 | 0.0 | 0.0 | 0.00 | 0.00 | 0.00 | 89 | 1017.4 |
| 20260901031520 | 75 | 101 | 0.0 | 0.0 | 0.00 | 0.00 | 0.00 | 89 | 1017.4 |
| 20260901030022 | 75 | 101 | 0.0 | 1.0 | 0.00 | 0.00 | 0.00 | 91 | 1017.6 |
| 20260901024520 | 75 | 101 | 0.0 | 0.0 | 0.00 | 0.00 | 0.00 | 90 | 1017.5 |
| 20260901023017 | 75 | 101 | 0.0 | 0.0 | 0.00 | 0.00 | 0.00 | 89 | 1017.5 |
| 20260901021520 | 75 | 101 | 0.0 | 0.0 | 0.00 | 0.00 | 0.00 | 88 | 1017.5 |
| 20260901020017 | 76 | 101 | 0.0 | 0.0 | 0.00 | 0.00 | 0.00 | 88 | 1017.4 |
| 20260901014515 | 76 | 101 | 0.0 | 0.0 | 0.00 | 0.00 | 0.00 | 87 | 1017.3 |
| 20260901013015 | 76 | 101 | 0.0 | 0.0 | 0.00 | 0.00 | 0.00 | 86 | 1017.0 |
| 20260901011515 | 77 | 101 | 0.0 | 0.0 | 0.00 | 0.00 | 0.00 | 85 | 1017.0 |
| 20260901010015 | 77 | 101 | 0.0 | 0.0 | 0.00 | 0.00 | 0.00 | 84 | 1016.8 |
| 20260901004514 | 78 | 101 | 0.0 | 0.0 | 0.00 | 0.00 | 0.00 | 84 | 1016.7 |
| 20260901003014 | 78 | 101 | 0.0 | 0.0 | 0.00 | 0.00 | 0.00 | 83 | 1016.7 |
| 20260901001517 | 79 | 101 | 0.0 | 0.0 | 0.00 | 0.00 | 0.00 | 82 | 1016.6 |
| 20260901000013 | 79 | 101 | 0.0 | 0.0 | 0.00 | 0.00 | 0.00 | 81 | 1016.6 |
| 20260831234526 | 80 | 101 | 0.0 | 0.0 | 0.00 | 0.00 | 0.00 | 80 | 1016.6 |
| 20260831233011 | 81 | 101 | 0.0 | 0.0 | 0.00 | 0.00 | 0.00 | 79 | 1016.7 |
| 20260831231510 | 81 | 101 | 0.0 | 1.0 | 0.00 | 0.00 | 0.00 | 79 | 1016.8 |
| 20260831230009 | 81 | 101 | 0.0 | 0.0 | 0.00 | 0.00 | 0.00 | 80 | 1016.8 |
| 20260831224507 | 81 | 101 | 0.0 | 1.0 | 0.00 | 0.00 | 0.00 | 79 | 1017.0 |
| 20260831223006 | 81 | 101 | 0.0 | 0.0 | 0.00 | 0.00 | 0.00 | 78 | 1017.1 |
| 20260831221514 | 82 | 101 | 0.0 | 0.0 | 0.00 | 0.00 | 0.00 | 76 | 1017.2 |
| 20260831220015 | 82 | 101 | 0.0 | 0.0 | 0.00 | 0.00 | 0.00 | 74 | 1017.2 |
| 20260831214503 | 83 | 101 | 0.0 | 0.0 | 0.00 | 0.05 | 0.00 | 74 | 1017.3 |
| 20260831213004 | 83 | 101 | 0.0 | 2.0 | 0.00 | 0.05 | 0.00 | 73 | 1017.3 |
| 20260831211600 | 82 | 86 | 0.0 | 2.0 | 0.00 | 0.05 | 0.00 | 74 | 1017.4 |
| 20260831210100 | 82 | 86 | 0.0 | 2.0 | 0.00 | 0.05 | 0.00 | 75 | 1017.4 |
| 20260831204601 | 82 | 86 | 0.0 | 0.0 | 0.00 | 0.05 | 0.00 | 75 | 1017.5 |
| 20260831203132 | 82 | 86 | 0.0 | 2.0 | 0.00 | 0.05 | 0.00 | 74 | 1017.6 |
| 20260831201557 | 82 | 86 | 0.0 | 2.0 | 0.00 | 0.05 | 0.00 | 73 | 1017.7 |
| 20260831200057 | 82 | 86 | 0.0 | 2.0 | 0.00 | 0.05 | 0.00 | 74 | 1017.7 |
| 20260831194556 | 82 | 89 | 0.0 | 0.0 | 0.00 | 0.05 | 0.00 | 72 | 1017.9 |
| 20260831193056 | 83 | 89 | 0.0 | 0.0 | 0.00 | 0.05 | 0.00 | 72 | 1018.0 |
| 20260831191555 | 83 | 90 | 0.0 | 1.0 | 0.00 | 0.05 | 0.00 | 71 | 1018.1 |
| 20260831190127 | 83 | 84 | 0.0 | 2.0 | 0.00 | 0.05 | 0.00 | 72 | 1018.1 |
| 20260831184555 | 83 | 40 | 0.0 | 1.0 | 0.00 | 0.05 | 0.00 | 71 | 1018.2 |
| 20260831183054 | 82 | 346 | 0.0 | 1.0 | 0.00 | 0.05 | 0.00 | 73 | 1018.4 |
| 20260831181558 | 82 | 294 | 0.0 | 2.0 | 0.00 | 0.05 | 0.00 | 73 | 1018.5 |
| 20260831180053 | 82 | 290 | 0.0 | 2.0 | 0.00 | 0.05 | 0.00 | 73 | 1018.5 |
| 20260831174554 | 82 | 259 | 0.0 | 2.0 | 0.00 | 0.05 | 0.00 | 71 | 1018.5 |
| 20260831173052 | 83 | 288 | 0.0 | 2.0 | 0.00 | 0.05 | 0.00 | 70 | 1018.5 |
| 20260831171551 | 83 | 44 | 0.0 | 2.0 | 0.00 | 0.05 | 0.00 | 69 | 1018.6 |
| 20260831170050 | 83 | 90 | 0.0 | 2.0 | 0.00 | 0.05 | 0.00 | 69 | 1018.8 |
| 20260831164549 | 83 | 88 | 0.0 | 1.0 | 0.00 | 0.05 | 0.00 | 71 | 1018.8 |
| 20260831163049 | 83 | 88 | 0.0 | 2.0 | 0.00 | 0.05 | 0.00 | 70 | 1018.9 |
| 20260831161547 | 83 | 342 | 0.0 | 2.0 | 0.00 | 0.05 | 0.00 | 71 | 1019.0 |
| 20260831160115 | 82 | 248 | 0.0 | 2.0 | 0.00 | 0.05 | 0.00 | 73 | 1019.2 |
| 20260831154541 | 81 | 342 | 0.0 | 2.0 | 0.00 | 0.05 | 0.00 | 74 | 1019.2 |
| 20260831153118 | 81 | 343 | 0.0 | 2.0 | 0.00 | 0.05 | 0.00 | 74 | 1019.2 |
| 20260831151541 | 81 | 344 | 0.0 | 3.0 | 0.00 | 0.05 | 0.00 | 76 | 1019.3 |
| 20260831150038 | 80 | 268 | 0.0 | 2.0 | 0.00 | 0.05 | 0.00 | 78 | 1019.4 |
| 20260831144532 | 79 | 173 | 0.0 | 2.0 | 0.00 | 0.05 | 0.00 | 80 | 1019.2 |
| 20260831143029 | 77 | 170 | 0.0 | 2.0 | 0.00 | 0.05 | 0.00 | 81 | 1019.1 |
| 20260831141525 | 76 | 284 | 0.0 | 2.0 | 0.00 | 0.05 | 0.00 | 83 | 1019.2 |
| 20260831140023 | 75 | 88 | 0.0 | 2.0 | 0.00 | 0.05 | 0.00 | 84 | 1019.2 |
| 20260831134521 | 74 | 89 | 0.0 | 2.0 | 0.00 | 0.05 | 0.00 | 84 | 1019.4 |
| 20260831133017 | 74 | 88 | 0.0 | 2.0 | 0.00 | 0.05 | 0.00 | 85 | 1019.5 |
| 20260831131516 | 73 | 88 | 0.0 | 2.0 | 0.00 | 0.05 | 0.00 | 88 | 1019.6 |
| 20260831130011 | 72 | 86 | 0.0 | 2.0 | 0.00 | 0.05 | 0.00 | 88 | 1019.4 |
| 20260831124507 | 71 | 87 | 0.0 | 2.0 | 0.00 | 0.05 | 0.00 | 90 | 1019.6 |
| 20260831123005 | 71 | 86 | 0.0 | 2.0 | 0.00 | 0.05 | 0.00 | 91 | 1019.3 |
| 20260831121514 | 70 | 86 | 0.0 | 2.0 | 0.00 | 0.05 | 0.00 | 92 | 1019.2 |
| 20260831120010 | 70 | 85 | 0.0 | 1.0 | 0.00 | 0.05 | 0.00 | 93 | 1019.1 |
| 20260831114502 | 69 | 85 | 0.0 | 0.0 | 0.00 | 0.05 | 0.00 | 93 | 1018.9 |
| 20260831113002 | 69 | 85 | 0.0 | 0.0 | 0.00 | 0.05 | 0.00 | 93 | 1019.0 |
| 20260831111602 | 69 | 85 | 0.0 | 0.0 | 0.00 | 0.05 | 0.00 | 92 | 1018.9 |
| 20260831110059 | 69 | 85 | 0.0 | 1.0 | 0.00 | 0.05 | 0.00 | 93 | 1018.7 |
| 20260831104557 | 69 | 86 | 0.0 | 0.0 | 0.00 | 0.05 | 0.00 | 93 | 1018.5 |
| 20260831103056 | 69 | 86 | 0.0 | 2.0 | 0.00 | 0.05 | 0.00 | 93 | 1018.6 |
| 20260831101610 | 69 | 79 | 0.0 | 0.0 | 0.00 | 0.05 | 0.00 | 93 | 1018.3 |
| 20260831100054 | 69 | 79 | 0.0 | 0.0 | 0.00 | 0.05 | 0.00 | 94 | 1018.1 |
| 20260831094605 | 69 | 79 | 0.0 | 0.0 | 0.00 | 0.05 | 0.00 | 93 | 1018.0 |
| 20260831093053 | 69 | 79 | 0.0 | 0.0 | 0.00 | 0.05 | 0.00 | 93 | 1018.1 |
| 20260831091553 | 69 | 79 | 0.0 | 0.0 | 0.00 | 0.05 | 0.00 | 94 | 1018.0 |
| 20260831090051 | 68 | 79 | 0.0 | 0.0 | 0.00 | 0.05 | 0.00 | 93 | 1018.1 |
| 20260831084554 | 68 | 79 | 0.0 | 0.0 | 0.00 | 0.05 | 0.00 | 93 | 1018.1 |
| 20260831083054 | 69 | 79 | 0.0 | 2.0 | 0.00 | 0.05 | 0.00 | 92 | 1018.1 |
| 20260831081556 | 69 | 58 | 0.0 | 0.0 | 0.00 | 0.05 | 0.00 | 93 | 1017.9 |
| 20260831080047 | 69 | 58 | 0.0 | 1.0 | 0.00 | 0.05 | 0.00 | 93 | 1017.7 |
| 20260831074545 | 69 | 84 | 0.0 | 0.0 | 0.00 | 0.05 | 0.00 | 93 | 1017.6 |
| 20260831073044 | 69 | 86 | 0.0 | 0.0 | 0.00 | 0.05 | 0.00 | 92 | 1017.6 |
| 20260831071543 | 69 | 86 | 0.0 | 0.0 | 0.00 | 0.05 | 0.00 | 92 | 1017.4 |
| 20260831070107 | 69 | 86 | 0.0 | 0.0 | 0.00 | 0.05 | 0.00 | 92 | 1017.5 |
| 20260831064541 | 69 | 86 | 0.0 | 0.0 | 0.00 | 0.05 | 0.00 | 92 | 1017.6 |
| 20260831063040 | 70 | 86 | 0.0 | 0.0 | 0.00 | 0.05 | 0.00 | 92 | 1017.7 |
| 20260831061538 | 70 | 86 | 0.0 | 0.0 | 0.00 | 0.05 | 0.00 | 91 | 1017.8 |
| 20260831060046 | 70 | 86 | 0.0 | 0.0 | 0.00 | 0.05 | 0.00 | 91 | 1017.9 |
| 20260831054536 | 70 | 86 | 0.0 | 0.0 | 0.00 | 0.05 | 0.00 | 91 | 1017.9 |
| 20260831053035 | 71 | 86 | 0.0 | 0.0 | 0.00 | 0.05 | 0.00 | 90 | 1017.9 |
| 20260831051547 | 71 | 86 | 0.0 | 0.0 | 0.00 | 0.05 | 0.00 | 91 | 1017.9 |
| 20260831050036 | 71 | 86 | 0.0 | 0.0 | 0.00 | 0.05 | 0.00 | 91 | 1018.0 |
| 20260831044530 | 71 | 86 | 0.0 | 0.0 | 0.00 | 0.05 | 0.00 | 90 | 1018.1 |
| 20260831043027 | 71 | 86 | 0.0 | 0.0 | 0.00 | 0.05 | 0.00 | 90 | 1018.3 |
| 20260831041532 | 71 | 86 | 0.0 | 0.0 | 0.00 | 0.05 | 0.00 | 89 | 1018.3 |
| 20260831040039 | 72 | 86 | 0.0 | 0.0 | 0.00 | 0.05 | 0.00 | 89 | 1018.2 |
| 20260831034520 | 72 | 86 | 0.0 | 0.0 | 0.00 | 0.05 | 0.05 | 89 | 1018.3 |